VLG2473 GCRR-GCRR

Flight info

Callsign VLG2473
Flight time 0h 14m
Altitude 8000
Route ASTAM DCT FV672
Aircraft A21N/M-SDE2E3FGHIRWXY/LB1

Departure

Time 2026-05-06 12:01
Airport César Manrique-Lanzarote Airport (GCRR)

Arrival

Time 2026-05-06 12:16
Airport César Manrique-Lanzarote Airport (GCRR)
Time Latitude Longitude Altitude Speed Heading
2026-05-06 11:46 28.95178 -13.60444 50 ft 0 kts 261°
2026-05-06 11:51 28.95177 -13.60444 50 ft 1 kts 261°
2026-05-06 11:51 28.95177 -13.60446 49 ft 2 kts 261°
2026-05-06 11:51 28.95173 -13.60473 52 ft 5 kts 261°
2026-05-06 11:51 28.95161 -13.60506 49 ft 2 kts 205°
2026-05-06 11:52 28.95140 -13.60493 50 ft 7 kts 138°
2026-05-06 11:52 28.95097 -13.60434 49 ft 10 kts 130°
2026-05-06 11:52 28.95068 -13.60430 47 ft 5 kts 200°
2026-05-06 11:52 28.95012 -13.60462 50 ft 12 kts 206°
2026-05-06 11:53 28.94932 -13.60506 49 ft 13 kts 206°
2026-05-06 11:53 28.94842 -13.60559 51 ft 16 kts 210°
2026-05-06 11:53 28.94733 -13.60626 47 ft 19 kts 207°
2026-05-06 11:53 28.94595 -13.60700 46 ft 25 kts 205°
2026-05-06 11:54 28.94418 -13.60799 35 ft 30 kts 206°
2026-05-06 11:54 28.94314 -13.60863 32 ft 17 kts 206°
2026-05-06 11:54 28.94196 -13.60930 31 ft 21 kts 207°
2026-05-06 11:54 28.94059 -13.61013 29 ft 24 kts 208°
2026-05-06 11:55 28.93922 -13.61090 27 ft 14 kts 207°
2026-05-06 11:55 28.93834 -13.61142 27 ft 16 kts 207°
2026-05-06 11:55 28.93731 -13.61203 27 ft 6 kts 207°
2026-05-06 11:55 28.93730 -13.61204 27 ft 0 kts 207°
2026-05-06 11:57 28.93726 -13.61206 27 ft 0 kts 207°
2026-05-06 11:58 28.93725 -13.61206 27 ft 1 kts 207°
2026-05-06 11:58 28.93701 -13.61219 27 ft 2 kts 194°
2026-05-06 11:59 28.93690 -13.61220 27 ft 4 kts 183°
2026-05-06 11:59 28.93640 -13.61181 27 ft 12 kts 122°
2026-05-06 11:59 28.93611 -13.61081 27 ft 10 kts 94°
2026-05-06 11:59 28.93626 -13.61053 27 ft 0 kts 27°
2026-05-06 12:00 28.93629 -13.61051 27 ft 5 kts 26°
2026-05-06 12:00 28.93808 -13.60954 29 ft 57 kts 25°
2026-05-06 12:00 28.94331 -13.60648 34 ft 112 kts 28°
2026-05-06 12:01 28.95186 -13.60131 89 ft 158 kts 24°
2026-05-06 12:01 28.96177 -13.59527 434 ft 165 kts 18°
2026-05-06 12:01 28.97191 -13.58913 947 ft 167 kts 22°
2026-05-06 12:01 28.98224 -13.58241 1412 ft 174 kts 21°
2026-05-06 12:02 28.99161 -13.57342 1917 ft 180 kts 45°
2026-05-06 12:02 28.99819 -13.56131 2412 ft 179 kts 70°
2026-05-06 12:02 28.99970 -13.54642 2702 ft 208 kts 90°
2026-05-06 12:02 28.99869 -13.52856 2881 ft 240 kts 95°
2026-05-06 12:03 28.99695 -13.50878 3123 ft 267 kts 96°
2026-05-06 12:03 28.99482 -13.48659 3389 ft 294 kts 97°
2026-05-06 12:03 28.99232 -13.46263 3502 ft 317 kts 98°
2026-05-06 12:03 28.98944 -13.43732 3620 ft 323 kts 97°
2026-05-06 12:04 28.98604 -13.41240 3892 ft 305 kts 106°
2026-05-06 12:04 28.97863 -13.39096 4426 ft 289 kts 108°
2026-05-06 12:04 28.97176 -13.36925 5131 ft 292 kts 122°
2026-05-06 12:04 28.95975 -13.35209 5558 ft 266 kts 154°
2026-05-06 12:05 28.94359 -13.34523 5305 ft 236 kts 188°
2026-05-06 12:05 28.92940 -13.35016 5205 ft 198 kts 220°
2026-05-06 12:05 28.92001 -13.36022 5077 ft 177 kts 238°
2026-05-06 12:05 28.91370 -13.37201 4924 ft 173 kts 248°
2026-05-06 12:06 28.90903 -13.38444 4784 ft 165 kts 252°
2026-05-06 12:06 28.90485 -13.39642 4653 ft 162 kts 252°
2026-05-06 12:06 28.90057 -13.40835 4526 ft 162 kts 251°
2026-05-06 12:06 28.89617 -13.42018 4402 ft 161 kts 250°
2026-05-06 12:07 28.89169 -13.43192 4266 ft 161 kts 250°
2026-05-06 12:07 28.88714 -13.44363 4152 ft 161 kts 250°
2026-05-06 12:07 28.88413 -13.45134 4070 ft 161 kts 250°
2026-05-06 12:07 28.87955 -13.46296 3932 ft 160 kts 250°
2026-05-06 12:08 28.87354 -13.47818 3772 ft 159 kts 250°
2026-05-06 12:08 28.86900 -13.48975 3652 ft 160 kts 249°
2026-05-06 12:08 28.86445 -13.50129 3528 ft 159 kts 249°
2026-05-06 12:08 28.86141 -13.50898 3437 ft 155 kts 249°
2026-05-06 12:09 28.85702 -13.52009 3307 ft 153 kts 249°
2026-05-06 12:09 28.85266 -13.53111 3177 ft 151 kts 250°
2026-05-06 12:09 28.84836 -13.54199 3057 ft 150 kts 250°
2026-05-06 12:09 28.84406 -13.55286 2931 ft 150 kts 250°
2026-05-06 12:10 28.83984 -13.56355 2811 ft 150 kts 249°
2026-05-06 12:10 28.83548 -13.57456 2681 ft 151 kts 249°
2026-05-06 12:10 28.83127 -13.58517 2536 ft 147 kts 249°
2026-05-06 12:10 28.82712 -13.59559 2421 ft 135 kts 250°
2026-05-06 12:11 28.82349 -13.60473 2205 ft 121 kts 250°
2026-05-06 12:11 28.82009 -13.61330 2245 ft 118 kts 250°
2026-05-06 12:11 28.81676 -13.62174 2303 ft 117 kts 250°
2026-05-06 12:11 28.81341 -13.63021 2303 ft 118 kts 250°
2026-05-06 12:12 28.81100 -13.63913 2305 ft 118 kts 265°
2026-05-06 12:12 28.81219 -13.64832 2300 ft 120 kts 291°
2026-05-06 12:12 28.81825 -13.65523 2297 ft 132 kts 326°
2026-05-06 12:12 28.82785 -13.65594 2309 ft 148 kts
2026-05-06 12:13 28.83789 -13.65226 2305 ft 154 kts 10°
2026-05-06 12:13 28.84796 -13.64778 2221 ft 158 kts 10°
2026-05-06 12:13 28.85818 -13.64320 1862 ft 160 kts 12°
2026-05-06 12:13 28.86853 -13.63846 1445 ft 161 kts 12°
2026-05-06 12:14 28.87886 -13.63416 1144 ft 152 kts 10°
2026-05-06 12:14 28.88871 -13.63026 1002 ft 149 kts
2026-05-06 12:14 28.89867 -13.62702 886 ft 148 kts
2026-05-06 12:14 28.90872 -13.62478 753 ft 149 kts
2026-05-06 12:15 28.91869 -13.62028 447 ft 156 kts 16°
2026-05-06 12:15 28.92822 -13.61485 213 ft 152 kts 16°
2026-05-06 12:15 28.93771 -13.60967 46 ft 147 kts 19°
2026-05-06 12:15 28.94607 -13.60492 38 ft 112 kts 26°
2026-05-06 12:16 28.95131 -13.60217 53 ft 51 kts
2026-05-06 12:16 28.95320 -13.60240 53 ft 16 kts 308°
2026-05-06 12:16 28.95328 -13.60283 53 ft 2 kts 217°
2026-05-06 12:16 28.95304 -13.60297 50 ft 6 kts 206°
2026-05-06 12:17 28.95252 -13.60327 53 ft 11 kts 206°
2026-05-06 12:17 28.95165 -13.60373 51 ft 16 kts 205°
2026-05-06 12:17 28.95111 -13.60432 50 ft 8 kts 275°
2026-05-06 12:17 28.95135 -13.60515 49 ft 8 kts 263°
2026-05-06 12:18 28.95098 -13.60564 50 ft 10 kts 220°
2026-05-06 12:18 28.95056 -13.60619 51 ft 4 kts 269°
2026-05-06 12:18 28.95067 -13.60658 53 ft 7 kts 295°
2026-05-06 12:18 28.95084 -13.60694 53 ft 0 kts 298°
2026-05-06 12:19 28.95087 -13.60702 51 ft 0 kts 297°